STARLINK-32748, 62524

Orbit data source: Space-Track

STARLINK-32748, 62524 is a payload satellite owned by SpaceX/Seattle (US) in LEO that was launched on Wed, 08 Jan 2025 UTC via an FALCON 9 launch vehicle from the Air Force Eastern Test Range (AFETR). Payload-class satellites include a variety of spacecraft equipped with specific instruments for various scientific and technological missions. These include communications satellites like Starlink; space stations such as the ISS; scientific satellites like the Hubble; Earth observation satellites from companies like Planet Labs, Umbra, and HawkEye 360; GPS; miniature CubeSats for education and research; and military/defense satellites.

Loading next visibility...
Identifier
62524, 2025-004P
Orbit
LEO
Country
Flag of USUS
Related business
Manufacturer
SpaceX/Seattle
Mission
Operational Commercial Communications
Bus & Motor
STARLINK V2M, Unknown motor
Mass
730 kg wet, ~700 kg dry
Launch date (UTC)
2025-01-08 (8 months ago)
Launch vehicle
FALCON 9
Launch site
Air Force Eastern Test Range (AFETR)
Object type
Payload
Rocket body
Debris
Shape & HBR
Box + 2 Pan, 14.5 m
Radar Cross Section
33.884 m², Large (>1 m²)

Expand to show TLE details & history
Last TLE update: 20 hours ago

TLE from 20 hours ago
0 STARLINK-32748
1 62524U 25004P   25257.36186558  .00010114  00000-0  37641-3 0  9994
2 62524  43.0023 135.5010 0001200 279.6405  80.4311 15.27593411 39494
Epoch: 2025-09-14T08:41Z
TLE epoch observation values (Epoch: 2025-09-14T08:41:05.186Z)
Latitude
-0.00001°
Longitude
11.64742°
Altitude
482.648 km
Speed
7.626 km/s
True Right ascension
09h 02m 00s
True Declination
0° 00' 00"
Sunlit
Object was in daylight at epoch
Visualization orbit readout
Latitude
Unknown
Longitude
Unknown
Altitude
Unknown
Speed
Unknown
Apparent Right ascension
Unknown
Apparent Declination
Unknown
Sunlit
N/A
Visualization observer readout
Local Sidereal Time
21:34:55
Azimuth
Unknown
Elevation
Unknown
Doppler factor
Unknown
Orbital elements
Apogee altitude
485.777 km
Perigee altitude
484.13 km
Semi-major axis
6,863.091 km
Eccentricity
0.00012
Inclination
43.0023°
RAAN
135.501°
Arg. of periapsis
279.6405°
True anomaly
80.44466°
Mean anomaly
80.4311°
Eccentric anomaly
80.43788°
Mean motion
3.81736 °/min
Orbital period
94.31 mins
BSTAR
0.00037641
Loading maneuver chart data...
Computing Atmospheric mass density...
Loading historical data...
Loading historical data...
Loading historical data...
Loading historical data...
Loading historical data...
Loading historical data...
Loading historical data...

Documentation

Showing up to 5 results
|